Theta_e
324 329 332 333 334 335 335 334 333 333 333 334 334 332 330 331 332 334 337 339 340 340 339 337 334 329 323 321 323 323 321 318 317 318 317 314 313 314 313 312 318 323
318 324 329 332 334 335 335 335 334 333 333 333 334 333 331 329 329 332 335 337 338 339 338 337 336 332 326 322 321 322 324 321 318 320 323 318 312 313 314 313 315 319
314 318 325 329 331 333 334 335 334 334 334 333 333 334 333 332 332 333 333 333 335 337 337 336 335 333 330 326 321 320 323 324 320 322 327 326 318 315 315 315 316 319
313 314 319 323 327 330 331 333 334 334 335 335 334 334 334 333 333 332 332 333 335 337 337 336 336 335 332 329 326 321 320 323 323 322 327 330 327 324 322 320 321 323
313 313 315 317 322 326 329 331 333 333 335 336 335 334 333 332 332 331 329 329 332 335 337 336 337 337 335 333 329 325 323 323 324 324 327 331 330 329 330 328 327 327
313 313 313 314 317 322 326 329 331 332 333 334 335 334 332 330 331 330 327 325 327 332 335 335 337 338 338 336 333 328 326 322 322 326 329 332 332 331 332 332 331 330
312 313 313 314 315 318 322 326 330 332 332 332 334 334 333 331 331 329 326 323 322 327 333 335 336 337 337 338 336 330 324 321 323 327 329 333 335 333 333 333 332 331
313 312 313 313 314 316 319 322 327 331 331 331 333 334 334 334 332 328 325 323 320 322 329 334 336 337 336 336 336 331 326 325 326 329 330 332 334 334 334 333 330 330
314 313 313 313 314 315 317 318 323 328 330 330 331 333 334 335 333 328 323 323 321 320 325 331 334 337 337 336 336 333 331 330 329 329 329 332 333 335 336 334 330 328
314 314 313 313 314 315 316 315 318 324 328 331 332 333 334 335 334 330 323 321 320 319 322 327 332 336 338 338 337 335 332 332 331 331 331 332 333 335 337 337 335 333
314 314 314 313 314 315 316 315 318 322 326 331 334 334 334 334 334 330 325 320 318 318 321 325 328 334 337 337 337 336 335 334 336 336 334 333 334 335 336 338 338 337
314 314 314 313 314 316 317 317 320 325 327 330 334 334 334 335 333 331 326 320 316 317 322 325 328 331 334 336 337 337 337 336 337 338 339 337 335 335 336 337 337 337
315 315 315 315 314 316 318 320 323 326 327 329 333 334 335 335 332 331 328 321 315 317 322 326 329 331 332 334 335 337 337 337 336 337 338 338 337 336 336 337 337 337
315 315 316 316 315 315 319 321 323 325 327 329 332 334 335 334 330 329 329 323 315 315 322 327 329 331 333 334 335 336 337 337 336 336 336 337 338 337 337 337 336 337
315 315 316 318 317 316 319 321 321 324 327 330 332 333 333 333 329 326 329 325 314 314 321 326 327 329 332 334 335 336 337 337 338 338 336 337 337 336 336 337 336 336
315 315 316 318 318 317 320 321 320 325 329 330 333 333 333 333 329 326 329 326 314 316 324 326 325 327 330 333 334 334 335 337 338 338 337 338 338 337 336 337 335 334
315 315 316 318 318 319 321 321 321 326 330 331 332 332 332 331 326 325 329 324 313 319 328 328 327 327 328 331 332 332 332 333 334 334 333 335 337 337 336 336 336 335
315 315 316 318 319 320 321 320 321 326 330 331 332 332 332 331 326 326 328 322 313 318 326 328 328 326 325 329 331 331 332 331 330 329 330 330 332 334 336 337 338 337
315 316 317 318 319 321 320 319 322 327 328 330 331 332 332 330 329 330 328 319 314 317 321 325 327 326 326 327 329 330 331 330 329 329 329 329 329 332 335 338 339 338
316 316 318 318 319 321 320 319 324 326 327 329 330 331 331 330 330 331 326 318 317 318 321 325 326 326 326 324 324 326 327 328 328 328 329 330 329 331 336 338 338 338
316 317 318 318 320 321 320 320 324 326 328 329 329 328 330 330 330 330 326 320 320 320 323 326 326 327 326 322 323 326 327 327 327 327 330 333 333 334 336 337 337 336
317 317 318 319 320 321 321 322 324 325 326 325 324 326 329 329 330 330 328 325 323 321 324 326 325 327 327 324 325 329 330 330 329 329 331 334 335 335 334 334 336 337
317 318 317 319 322 322 322 323 325 324 324 323 324 327 327 326 328 330 330 328 325 322 324 324 324 326 327 326 328 330 331 330 330 330 332 332 334 334 331 332 337 338
318 317 316 319 323 323 321 322 324 324 324 325 327 327 324 323 327 330 329 328 325 320 321 322 321 324 326 326 328 330 331 330 328 328 330 331 333 334 333 333 337 338
319 319 319 321 324 324 322 323 325 325 325 325 327 327 323 322 328 329 328 328 324 318 318 320 318 320 322 324 327 330 331 331 330 329 329 329 331 333 334 335 336 337
321 321 321 322 322 323 324 325 326 327 327 327 329 329 326 325 327 327 326 329 326 318 317 319 316 315 317 319 324 328 330 332 332 331 329 328 329 330 333 335 336 336
Wind_Speed
35 33 29 29 31 32 32 33 34 34 32 28 25 25 24 25 25 25 28 29 28 28 26 24 27 33 35 34 33 32 31 31 32 32 33 35 33 32 31 29 28 26
33 36 34 30 29 30 31 32 33 34 33 30 28 25 23 22 21 21 24 28 29 29 27 25 26 31 35 35 34 33 32 32 32 30 30 32 33 33 32 31 30 28
30 35 37 35 31 30 31 32 32 32 32 33 32 28 25 23 20 20 22 25 27 27 28 30 30 31 34 36 35 34 33 33 32 30 28 27 29 31 32 32 30 29
31 32 35 39 37 34 33 33 33 32 32 33 33 31 29 27 23 21 21 23 24 25 28 31 32 32 34 37 37 35 34 34 33 31 28 25 26 27 29 31 30 29
33 32 32 36 39 38 35 34 36 36 34 32 32 31 32 31 25 22 21 21 23 25 28 31 30 31 33 35 37 37 35 35 35 33 30 28 27 26 26 28 30 29
33 34 33 33 36 39 38 35 35 37 36 35 33 31 33 33 28 23 22 22 22 23 27 31 31 31 31 32 35 38 36 35 36 34 31 30 29 29 27 26 28 29
33 34 34 33 34 37 39 37 35 36 37 36 35 33 33 33 30 26 25 23 21 21 24 28 31 31 32 32 32 36 38 37 36 35 33 32 30 31 30 26 26 28
33 34 35 35 34 35 38 40 38 36 35 36 36 36 34 33 31 29 27 24 22 22 23 26 30 31 33 34 32 33 35 35 35 35 34 33 31 31 31 29 29 30
32 34 35 36 36 36 38 40 40 37 35 34 35 37 37 35 33 30 30 27 23 23 23 25 29 30 32 34 34 33 33 34 35 35 35 35 34 31 30 29 30 31
33 34 35 36 37 38 39 40 41 40 38 34 34 36 36 36 36 33 33 32 27 25 25 26 29 31 33 33 33 33 34 34 34 34 34 35 34 32 30 28 27 28
34 35 36 38 39 38 39 40 40 41 39 35 33 34 34 35 37 35 35 35 31 27 26 27 29 31 34 34 33 33 33 33 31 31 31 33 33 32 30 29 27 26
34 36 37 39 39 38 38 39 38 39 39 36 34 35 36 37 38 35 36 37 33 29 28 28 29 30 33 36 35 34 34 33 31 29 28 30 31 31 31 30 29 27
33 35 37 38 39 38 37 36 36 38 39 37 35 36 36 38 39 36 37 39 34 30 28 28 30 31 33 36 37 36 34 34 34 32 29 28 28 29 30 30 30 28
32 33 34 35 38 39 36 35 36 38 37 35 35 36 36 39 40 37 38 39 34 29 28 28 31 32 32 35 37 36 33 33 34 33 31 28 26 26 27 29 30 28
32 31 32 32 35 37 35 35 37 36 35 35 35 36 37 38 38 36 39 39 32 28 28 29 32 33 33 34 36 35 33 33 33 32 30 28 25 25 25 27 29 29
31 31 31 30 32 34 34 35 36 35 34 35 35 35 35 36 37 37 38 37 31 27 28 30 32 32 32 33 35 36 33 31 31 30 28 24 22 23 25 26 28 29
31 30 30 30 31 32 32 34 36 36 36 35 34 34 34 34 37 38 38 35 31 27 27 29 30 29 29 31 35 37 35 30 28 27 26 25 22 23 25 25 26 27
30 29 29 29 29 30 31 34 36 38 38 34 33 34 33 32 35 37 37 35 31 28 28 28 28 27 27 29 33 36 35 32 30 29 30 32 30 28 27 25 24 25
29 28 27 28 28 28 31 34 36 38 38 35 33 32 31 30 31 32 35 34 31 29 28 27 27 26 25 27 30 33 34 32 31 31 33 36 36 33 29 25 24 24
27 26 26 27 26 27 31 35 35 36 36 33 31 30 29 29 29 28 31 33 31 28 25 25 27 26 25 26 29 31 33 34 34 32 32 35 37 35 31 27 25 24
26 26 25 25 25 27 31 33 32 33 33 31 29 29 27 28 28 27 28 31 30 26 23 24 26 26 26 29 30 32 32 33 35 35 33 33 34 33 31 28 27 27
24 24 24 24 24 27 30 31 30 32 32 31 30 29 28 29 28 26 26 28 27 25 23 24 26 27 29 31 31 31 31 32 34 36 36 35 34 33 30 28 29 30
24 25 26 25 25 27 29 30 29 30 30 31 31 30 30 30 29 27 26 26 26 25 23 23 25 27 30 31 31 30 31 33 35 36 37 36 35 34 34 32 31 31
25 26 27 26 26 28 30 30 30 30 30 31 32 31 31 31 29 28 28 28 27 25 24 23 24 26 28 29 30 31 32 34 36 37 38 38 37 37 38 37 35 32
21 21 22 23 22 24 27 27 28 29 31 31 31 31 32 32 31 30 29 29 29 26 25 24 24 25 27 28 29 30 32 34 36 37 38 39 39 38 37 37 35 32
14 14 15 15 16 20 24 25 23 23 25 27 29 31 32 33 33 32 30 30 31 29 27 27 27 27 29 30 30 30 31 32 35 38 38 39 39 39 37 35 34 33
Wind_Direction
229 228 225 226 230 232 233 234 236 236 233 232 233 234 236 238 241 242 240 235 229 226 225 223 226 230 228 224 222 224 226 227 228 229 231 233 232 232 232 230 226 226
232 229 227 225 224 227 229 231 233 234 232 232 232 232 233 236 239 240 240 239 236 232 227 223 225 229 231 228 225 226 226 227 228 228 230 232 233 233 234 232 230 228
241 232 228 227 226 225 225 227 230 231 231 232 232 231 232 235 238 239 241 242 241 236 229 226 224 225 230 231 229 229 229 229 228 228 228 230 231 232 233 232 230 228
249 242 233 230 230 228 225 225 226 226 227 229 230 231 232 234 238 238 237 240 241 234 226 225 224 223 227 230 230 230 231 231 230 230 229 227 225 227 231 231 228 226
251 248 242 235 233 231 229 227 225 223 224 225 227 230 231 232 235 235 230 232 237 233 226 224 223 223 223 226 228 229 230 232 232 231 230 227 224 223 225 228 226 224
251 248 246 241 235 232 231 231 230 226 224 223 225 228 230 230 232 231 228 229 231 231 229 224 221 221 221 222 226 227 227 229 231 232 230 227 227 224 223 223 222 223
251 247 245 243 239 233 231 232 233 230 226 223 223 226 228 229 229 228 230 232 229 231 233 227 222 220 219 220 224 226 226 227 229 231 230 228 227 226 223 220 219 221
252 248 244 242 239 234 230 230 231 230 227 224 223 225 227 227 225 225 230 234 231 230 233 230 226 223 220 220 222 224 225 225 225 227 228 227 225 224 223 223 222 222
252 248 244 240 238 235 232 229 229 229 227 224 223 225 226 226 224 223 228 232 232 231 232 232 230 226 221 220 220 222 222 222 223 225 225 225 223 221 221 223 225 224
251 248 243 239 237 235 234 232 230 228 225 222 222 224 225 227 227 225 226 230 232 231 231 232 233 228 222 219 218 220 221 222 223 223 222 222 222 220 217 218 221 221
250 247 244 240 236 235 235 233 230 228 224 219 219 221 221 226 229 226 225 229 232 232 230 230 233 233 226 220 218 218 219 220 219 219 219 221 221 219 215 215 217 217
249 246 244 241 237 233 234 234 230 226 223 218 217 218 218 224 228 226 226 229 231 231 230 230 232 235 231 224 221 220 220 219 217 216 217 219 220 219 216 216 217 217
246 245 242 241 238 234 232 233 229 225 222 217 216 217 217 223 226 224 228 232 231 230 231 231 231 235 234 228 223 222 221 221 219 218 217 216 217 218 217 216 217 216
243 242 240 239 239 235 231 231 229 226 221 215 214 215 218 223 223 222 229 232 229 230 232 231 231 234 234 229 224 221 221 221 220 219 217 215 214 216 217 217 216 215
241 240 238 236 236 234 231 229 228 226 220 213 213 214 217 223 223 221 227 229 228 230 232 231 233 233 233 230 225 220 221 223 221 218 216 214 215 217 217 217 216 215
239 236 234 233 233 232 229 228 227 224 219 213 212 212 215 221 222 221 223 225 226 230 231 232 235 235 234 233 227 223 225 226 220 215 213 213 216 218 218 219 219 217
235 233 229 228 229 228 227 226 225 222 217 212 210 211 213 218 220 220 222 223 225 228 230 232 236 236 236 235 229 226 228 231 229 225 225 226 227 226 221 220 221 220
231 230 226 225 225 225 224 224 224 221 215 210 208 209 211 215 216 216 219 222 224 228 231 233 235 236 235 234 231 227 227 231 234 235 234 233 234 233 225 220 220 219
228 226 223 221 221 222 222 223 223 220 213 207 207 207 208 212 213 213 216 220 224 229 232 234 236 235 231 229 228 226 224 225 229 231 232 232 234 235 230 222 217 217
224 222 220 220 218 219 221 220 218 216 211 206 207 207 206 208 211 213 215 219 224 229 230 233 235 232 227 223 221 220 218 218 220 223 228 231 232 234 232 225 220 221
219 217 216 216 215 215 219 218 214 211 208 203 205 207 206 208 211 214 215 218 224 225 225 229 232 228 225 222 219 217 216 215 216 216 220 226 229 230 229 227 227 225
214 213 212 212 211 212 215 213 211 212 211 208 210 212 210 210 212 213 214 216 220 221 221 226 229 226 223 223 220 218 217 218 218 216 217 222 227 229 228 229 230 227
211 208 208 207 206 209 211 208 207 211 211 210 212 212 210 212 212 211 210 212 216 217 216 220 225 225 224 224 222 219 218 219 219 218 219 220 223 225 226 227 229 226
214 210 208 206 204 207 209 208 208 209 209 209 211 211 212 213 210 206 207 210 215 216 214 215 220 223 224 225 223 219 217 218 219 220 220 219 219 220 222 224 226 226
217 214 210 206 206 208 208 209 210 211 212 213 213 212 211 210 206 204 206 209 213 214 211 208 212 218 222 223 224 222 218 217 219 221 222 222 221 220 222 225 227 227
213 213 210 210 214 212 210 210 210 211 213 214 213 212 208 206 204 203 204 207 209 209 208 206 208 215 220 222 223 224 222 219 218 221 224 225 225 224 224 225 226 227